Helicity
78 92 49 51 74 66 54 25 50 76 56 74 73 138 169 52 71 63 68 98 156 104 81 52 65 54 39 30 22 18 15 20 25 31 53 61 63 64 52 46 51 65 80 91 87 86 84 75 50
62 84 61 69 98 84 57 3 71 71 85 132 153 123 118 71 16 22 57 56 105 115 65 83 83 69 51 43 37 25 15 10 11 15 34 71 69 58 57 51 49 55 61 70 79 72 63 40 32
53 61 101 82 77 45 33 17 113 103 129 43 33 14 26 69 75 -47 105 69 101 113 66 90 83 74 68 58 46 33 21 11 9 10 61 57 47 53 57 57 51 51 60 62 63 58 55 47 34
72 81 98 94 25 12 8 2 103 167 60 49 53 44 79 123 91 111 53 76 92 88 158 110 92 84 82 59 44 32 20 14 8 -16 43 50 54 58 57 52 50 53 51 53 54 54 48 39 35
97 122 88 72 13 -8 -4 26 97 124 86 61 48 36 90 121 118 81 52 62 72 245 154 112 111 105 91 66 56 49 35 30 41 60 40 33 47 43 44 39 35 34 33 36 33 29 22 17 17
140 137 139 72 21 29 38 20 124 132 52 32 63 35 77 75 56 66 46 41 107 157 115 126 121 119 88 77 68 58 43 34 38 44 39 27 25 26 31 22 20 23 20 20 19 19 21 20 16
127 145 115 71 50 49 44 24 125 62 62 70 33 76 90 111 117 64 28 46 116 116 127 113 110 103 91 81 75 59 54 41 30 34 35 43 47 27 12 35 19 19 17 17 15 14 16 14 13
155 154 89 85 71 48 50 46 128 123 92 17 97 90 122 132 80 56 66 109 117 150 112 88 111 114 98 82 83 75 60 51 44 52 58 41 27 5 -17 46 29 29 24 25 26 21 17 14 11
112 180 140 88 76 46 73 70 150 189 123 79 72 73 62 116 75 111 105 109 125 116 92 77 104 107 93 100 94 94 79 62 49 58 51 31 10 20 73 66 59 46 34 29 26 17 5 2 -9
208 180 154 102 76 78 54 89 105 158 98 92 134 119 43 64 85 107 71 77 93 88 85 97 119 88 80 115 137 108 96 79 59 47 47 5 -9 62 80 94 70 52 41 27 17 3 -11 20 14
159 133 113 100 129 85 174 273 172 235 222 115 99 108 114 45 80 78 63 69 76 79 79 88 128 87 66 200 131 105 103 72 52 51 71 -7 78 146 109 74 60 44 24 20 4 7 30 54 59
107 128 97 86 216 140 77 175 269 174 125 109 110 103 146 148 101 109 127 95 99 98 95 110 112 153 153 205 134 141 128 62 48 58 75 29 97 103 89 79 54 50 52 43 27 58 61 44 64
106 108 86 107 207 208 91 110 146 177 169 79 96 201 167 188 202 191 102 90 118 136 139 150 118 132 156 206 151 150 109 20 53 130 101 88 102 82 59 74 84 69 128 123 104 101 85 87 70
96 121 88 105 101 99 75 49 84 117 59 42 88 164 231 235 220 169 198 158 140 111 179 173 122 158 137 154 148 113 46 86 132 157 101 94 80 68 96 130 187 198 155 143 149 135 108 85 70
191 131 92 81 80 83 56 34 57 42 41 50 64 61 99 134 174 149 137 163 98 120 157 173 166 158 162 107 100 96 81 184 155 155 110 86 109 123 120 189 188 162 171 178 168 136 115 102 81
84 56 81 23 31 47 53 17 63 54 67 52 44 60 67 83 50 35 91 125 149 104 123 161 166 159 162 141 103 118 103 200 179 166 149 107 182 213 222 224 168 136 158 174 165 139 117 101 87
62 98 71 78 64 72 87 43 48 111 114 108 76 78 86 70 32 73 91 85 104 171 137 133 195 216 175 143 152 129 105 231 203 170 190 151 220 210 201 190 146 138 157 165 149 159 129 110 86
63 63 115 105 73 63 45 40 53 81 71 61 80 100 116 114 120 131 128 106 154 136 165 183 228 275 236 196 194 177 134 226 243 238 226 327 289 247 205 238 219 206 189 154 151 146 135 100 75
178 204 171 203 200 107 60 47 46 45 57 58 82 103 105 91 88 105 120 140 178 153 154 169 252 280 269 228 244 273 206 286 304 289 326 449 372 277 253 280 279 216 181 149 145 140 119 117 74
81 72 73 57 60 58 39 48 47 68 78 87 78 108 114 101 96 70 90 145 126 165 219 202 207 297 276 269 272 262 384 409 418 446 513 553 401 382 292 320 315 282 271 221 161 123 109 85 81
65 60 65 69 55 17 46 63 17 101 23 8 26 53 69 105 112 102 88 103 144 137 119 230 282 274 311 329 429 496 577 562 607 660 639 658 497 414 305 357 374 304 271 236 174 151 105 79 69
55 57 51 58 62 46 113 34 49 36 44 44 33 68 87 97 113 112 99 114 139 150 145 118 215 280 286 341 475 483 491 539 596 655 689 702 484 414 388 427 369 340 280 281 191 151 123 84 69
54 73 100 76 66 61 26 61 -21 -4 34 38 73 112 89 72 86 107 144 128 107 124 166 174 136 189 266 321 463 545 580 601 638 679 731 643 473 415 418 394 363 333 300 258 214 160 137 113 76
105 83 24 42 59 58 -3 22 4 -17 86 68 175 82 50 113 107 123 162 174 126 132 143 181 181 199 263 355 470 532 571 571 558 552 613 554 446 433 435 379 367 354 308 268 217 161 131 118 112
71 60 42 14 42 50 61 63 147 84 32 51 96 123 115 155 152 100 130 117 86 86 120 134 200 269 323 410 503 508 473 481 446 488 536 515 459 445 439 405 368 326 278 240 181 143 116 108 106
44 82 67 83 96 105 152 157 146 40 4 147 113 94 67 97 97 128 100 105 91 91 91 138 190 309 373 475 442 387 445 402 388 393 417 419 444 429 403 346 311 286 272 204 160 126 107 108 105
92 46 112 135 100 118 116 181 109 6 33 61 91 121 100 108 88 159 180 145 107 92 101 126 192 282 387 446 365 368 413 388 336 372 388 418 425 411 339 334 270 260 230 183 127 109 105 101 91
50 81 149 156 105 80 116 92 85 200 278 283 300 252 183 101 199 233 216 134 80 77 99 126 168 231 360 340 355 454 453 383 320 349 388 379 374 387 389 329 268 245 212 169 144 124 112 100 99
85 90 118 170 153 121 96 122 221 209 154 140 124 104 201 256 232 185 102 55 49 67 54 156 175 227 277 332 442 547 529 431 378 362 359 400 450 372 353 308 270 233 194 154 143 129 109 103 107
69 91 75 130 99 194 229 94 167 92 202 235 146 163 93 132 123 104 84 49 49 40 61 154 178 226 416 510 546 470 424 392 374 396 396 417 361 321 337 297 225 213 169 134 129 116 116 110 120
Wind_Speed
54 56 50 45 44 41 52 52 36 36 38 43 37 36 38 46 36 34 13 18 11 12 13 15 17 18 20 22 23 25 25 26 26 25 24 26 28 31 33 35 32 29 28 29 30 29 28 28 29
49 52 48 44 47 53 51 39 35 36 32 36 42 41 43 30 25 16 14 11 13 15 13 14 17 17 19 21 23 25 27 27 26 25 23 25 28 30 32 33 32 30 27 27 28 28 28 29 31
48 48 46 41 48 52 51 45 23 25 35 39 36 24 36 30 24 12 14 11 13 14 12 12 14 17 18 20 21 24 27 26 25 23 23 25 28 29 30 31 31 30 28 27 27 28 29 30 31
39 39 47 56 59 44 55 56 37 29 33 33 37 31 24 30 26 16 10 10 10 13 13 14 12 13 17 19 21 24 25 25 23 20 22 25 27 27 29 30 30 30 29 29 28 29 30 31 31
39 44 54 55 60 63 66 51 34 36 36 28 26 34 26 27 19 12 7 6 8 11 13 12 10 11 14 16 19 23 24 23 23 21 22 24 24 26 27 29 29 28 28 29 29 30 30 31 31
43 47 58 64 67 54 52 54 32 35 39 29 34 37 28 14 15 10 7 2 5 8 9 7 8 9 11 13 16 20 22 21 19 20 21 22 22 24 25 26 27 28 28 29 30 31 31 31 32
59 58 70 72 71 64 52 41 27 30 37 39 33 33 20 15 13 8 7 4 1 5 5 4 4 6 8 11 13 17 19 20 19 18 19 21 23 24 23 22 25 27 28 29 30 30 30 31 32
54 63 78 77 74 74 64 55 36 36 43 37 32 28 29 18 13 8 9 7 5 4 2 4 2 3 5 7 10 13 15 17 17 19 19 20 22 24 22 16 21 26 27 29 29 30 30 31 32
47 69 77 77 74 75 68 56 35 36 50 47 28 33 21 20 14 11 11 11 12 9 7 1 2 2 1 4 6 9 11 13 14 15 16 18 20 25 25 17 19 24 26 28 29 30 30 29 31
54 71 75 62 66 71 76 56 50 43 38 45 43 23 22 25 22 15 13 14 13 13 12 9 5 3 2 2 3 7 9 11 12 13 12 14 15 17 20 18 20 23 24 26 27 29 28 30 30
56 82 61 66 69 61 63 63 47 55 45 37 42 41 29 28 23 21 18 16 15 12 16 14 11 7 8 6 5 6 6 7 6 6 8 7 15 16 17 20 20 22 23 24 26 28 32 36 38
73 62 67 72 65 57 65 65 67 55 54 58 63 52 33 23 29 29 33 26 17 15 14 15 15 14 13 10 10 10 10 9 7 2 3 5 12 14 13 15 16 19 24 26 27 28 34 35 38
65 67 64 63 70 65 63 72 76 82 69 69 71 71 52 45 48 48 25 30 35 18 15 15 17 17 17 16 14 13 12 9 9 5 5 9 14 13 10 14 16 22 23 28 32 33 34 37 41
46 61 66 70 60 65 73 76 73 64 72 82 78 77 69 58 54 55 52 36 36 26 17 16 19 18 19 19 18 16 13 10 11 8 9 8 9 9 13 17 20 24 28 29 31 33 36 38 41
53 63 67 72 65 62 56 78 79 80 73 70 60 51 70 70 65 45 45 46 31 40 21 20 19 18 17 19 20 18 21 15 11 11 10 13 13 12 15 17 21 23 28 27 30 33 36 39 42
55 62 70 62 56 61 54 81 66 59 45 41 51 61 65 49 33 36 42 44 51 31 36 23 23 22 20 19 20 20 21 19 13 14 12 12 14 14 18 17 21 22 25 27 29 32 35 39 42
54 65 59 61 44 43 48 67 55 50 51 58 49 45 43 37 35 37 34 38 42 41 36 32 26 25 24 23 22 21 21 20 19 17 15 12 13 15 15 17 18 19 23 26 28 32 34 39 44
56 57 60 64 43 47 60 75 73 75 76 69 59 61 60 55 52 47 42 40 44 45 44 42 34 29 28 27 27 25 24 22 20 20 18 13 15 16 13 13 14 18 22 25 26 29 34 39 45
66 61 61 60 55 67 74 86 82 78 76 73 64 64 61 56 53 54 48 57 51 47 46 44 46 41 38 38 33 30 28 26 20 21 18 15 16 13 12 11 13 16 21 22 24 27 32 41 47
61 63 66 66 66 71 77 93 87 88 84 71 70 64 61 63 61 60 59 49 48 53 54 53 46 44 43 42 40 39 32 28 24 21 20 18 17 14 14 11 12 16 20 24 25 28 33 37 45
55 57 60 66 68 74 82 91 65 59 58 59 61 63 66 65 66 66 67 63 55 51 55 58 57 53 48 44 40 38 31 28 27 22 22 23 19 18 15 12 12 14 16 21 25 28 32 36 41
52 48 53 56 57 60 54 83 73 77 72 64 57 54 58 61 64 69 72 69 64 60 52 55 67 61 58 52 48 46 43 38 37 28 25 23 21 20 15 12 12 14 16 19 24 26 29 34 39
43 38 46 52 60 69 62 66 78 62 75 69 62 57 55 57 55 56 56 58 69 70 60 57 58 65 58 55 52 49 46 42 33 30 26 24 24 22 18 13 10 13 16 19 22 26 30 34 37
33 45 49 54 55 69 59 55 83 67 62 56 54 51 54 50 54 54 55 59 62 62 67 64 57 56 54 52 54 52 47 42 37 34 31 28 24 21 17 12 11 13 15 18 20 22 28 34 38
40 43 50 55 57 65 55 55 67 69 69 79 67 60 48 43 57 56 56 62 63 60 63 64 63 57 52 48 50 51 50 44 40 35 32 27 24 21 19 12 12 12 15 16 19 24 28 34 39
37 38 47 61 62 68 66 64 70 59 62 51 53 59 59 63 60 57 57 63 67 64 61 59 60 53 49 47 48 48 44 43 39 34 29 25 22 19 14 12 10 9 13 16 20 25 30 36 41
33 38 39 58 64 71 63 66 74 67 65 64 64 63 60 58 58 57 56 62 68 69 45 57 55 53 49 47 47 47 43 36 33 29 24 22 19 15 11 9 8 10 13 17 21 27 34 39 42
32 30 43 45 63 72 64 69 68 59 60 58 62 66 72 53 45 50 57 63 71 79 57 39 54 51 49 46 44 41 37 31 28 24 23 19 16 13 10 9 9 12 15 18 25 31 36 42 46
27 37 39 48 46 57 75 58 45 56 63 71 75 73 64 50 50 53 56 62 74 74 54 33 45 46 42 41 38 35 30 26 23 22 18 15 13 11 8 7 9 14 18 21 28 34 39 45 50
24 29 21 37 47 38 60 69 35 49 59 72 81 61 49 46 48 56 52 60 69 64 50 28 40 39 34 33 32 30 25 24 22 18 14 12 11 7 7 7 9 18 22 27 32 38 45 49 55
Wind_Direction
287 287 292 295 286 285 280 280 297 301 298 288 304 293 297 296 303 296 3 345 64 73 77 72 64 48 34 29 22 17 12 7 3 9 17 21 20 17 10 9 8 6 6 6 10 16 13 7 0
287 283 285 287 279 276 280 291 289 292 301 308 296 291 287 307 333 351 1 12 77 81 81 70 70 51 36 27 21 12 5 2 4 4 14 22 17 13 12 10 8 9 6 5 6 5 2 359 357
279 277 280 280 275 274 276 300 302 304 304 301 302 299 292 304 339 2 22 65 81 85 84 77 66 50 38 24 16 10 3 1 4 11 21 12 11 15 14 10 7 6 5 3 0 0 359 358 359
281 282 277 269 270 279 271 285 302 307 306 305 299 303 301 318 316 335 13 77 77 90 90 91 65 47 37 31 20 10 6 6 7 13 21 15 17 18 13 9 9 10 9 6 5 1 358 356 357
275 276 267 269 270 270 268 290 306 299 300 310 308 296 309 314 336 5 13 77 79 70 93 91 77 46 29 25 21 14 13 15 13 29 20 14 19 16 14 11 11 9 6 4 2 1 360 360 358
266 268 265 264 267 277 279 285 296 295 295 304 305 291 314 342 331 338 345 25 75 84 86 78 80 56 41 29 14 9 13 14 19 20 16 17 14 10 10 9 10 10 6 0 354 353 354 356 357
259 261 261 263 266 272 279 288 289 293 293 295 302 301 307 322 342 339 327 316 45 71 64 49 72 66 66 54 34 23 20 17 16 15 10 6 4 357 2 15 14 11 5 358 356 355 355 357 358
264 264 259 260 264 267 274 288 284 283 285 297 306 300 313 326 337 324 313 313 302 314 53 76 74 39 21 28 43 34 26 26 24 20 13 13 6 2 357 25 19 12 5 356 356 355 353 355 356
267 260 259 260 264 265 271 283 293 288 285 287 300 286 314 331 340 329 304 296 289 289 286 217 164 142 33 11 23 28 25 19 17 18 17 16 13 6 10 37 19 10 5 359 355 353 353 356 358
261 259 261 269 270 270 267 280 282 285 284 279 289 291 304 306 303 300 289 283 276 274 273 280 236 239 249 309 3 359 3 3 2 2 10 19 28 26 15 20 7 360 358 356 354 350 352 352 354
265 258 269 268 270 281 276 275 284 278 282 281 279 282 286 289 286 285 284 278 272 266 273 270 270 254 251 274 293 318 338 351 6 21 23 34 7 15 13 3 354 351 350 351 352 351 342 340 337
261 269 267 268 272 282 275 274 273 279 280 277 276 284 300 284 286 281 282 280 265 262 259 264 266 267 267 267 275 290 295 307 309 348 37 3 349 353 354 5 0 352 344 339 344 347 341 343 342
264 266 271 274 272 276 278 271 271 269 277 275 272 270 281 282 282 283 283 280 282 263 253 252 264 261 266 269 274 277 274 271 287 296 312 327 327 340 358 356 2 343 343 337 332 335 339 336 335
276 271 271 271 277 274 272 273 274 278 274 268 269 268 272 276 278 278 280 283 280 275 255 251 254 255 262 267 269 277 273 257 288 293 297 310 327 342 342 346 347 341 333 333 334 335 332 334 333
274 275 274 271 273 273 281 273 273 274 274 275 276 275 272 272 273 273 276 280 273 278 256 248 244 247 247 258 272 273 281 280 272 290 292 295 309 320 329 337 335 333 331 332 332 332 333 332 333
277 274 272 279 271 272 271 272 279 283 281 274 274 276 275 274 247 240 264 268 276 264 270 254 244 227 233 241 253 267 272 274 265 286 278 278 300 311 322 328 332 334 334 331 330 330 332 332 333
271 271 272 276 279 279 270 277 283 289 285 283 281 277 277 266 249 261 253 243 256 267 262 260 244 228 229 239 243 255 265 264 265 269 274 263 287 300 308 317 325 333 334 331 328 328 330 330 331
270 269 274 273 277 279 276 274 277 279 279 280 283 282 283 283 282 278 266 252 260 256 256 258 258 246 253 252 253 253 260 264 264 265 266 260 280 289 299 317 326 328 332 331 328 328 332 332 331
275 277 278 278 283 281 278 276 278 280 281 279 279 279 280 279 283 281 278 275 270 260 257 246 251 249 250 253 246 247 246 262 257 264 260 259 272 276 285 304 320 324 323 329 329 328 330 331 332
271 274 275 281 284 283 282 276 279 277 278 279 278 280 281 281 281 279 278 274 266 265 262 260 254 250 247 249 254 259 257 266 264 265 272 272 268 270 280 289 308 322 324 325 325 323 326 331 334
273 274 278 280 287 287 285 280 283 288 285 283 282 282 281 282 281 279 276 276 272 263 262 261 260 255 250 248 251 257 258 263 268 267 273 280 274 269 273 284 302 319 326 324 325 324 324 327 333
275 284 285 287 291 285 301 282 283 287 289 290 293 290 288 285 284 281 278 277 275 268 263 261 261 256 253 245 247 240 243 246 259 257 270 277 273 276 274 281 301 316 324 323 325 329 330 332 332
278 297 291 291 290 292 292 288 287 296 294 296 297 295 292 291 289 286 284 281 277 275 276 261 259 260 252 244 245 242 246 255 256 260 263 271 271 270 272 277 295 313 323 326 325 325 330 333 333
294 291 295 295 295 290 292 288 291 299 304 307 315 306 293 293 299 296 294 292 288 282 272 271 262 252 251 243 243 242 241 245 250 254 258 264 265 260 260 268 292 313 320 324 328 333 332 334 335
286 297 297 296 294 294 304 292 289 302 302 303 301 308 306 296 305 302 301 298 294 284 276 271 266 252 245 241 245 245 247 245 248 251 251 249 251 252 256 264 287 306 322 329 331 331 335 335 335
291 296 299 296 299 299 304 299 302 309 307 311 309 307 302 297 302 299 301 300 298 294 278 270 261 253 243 239 245 248 242 248 251 252 245 245 243 245 249 267 290 313 329 330 331 332 334 335 335
306 298 312 303 305 303 305 307 308 310 309 307 308 313 305 299 297 299 300 301 300 298 286 270 259 251 244 242 245 243 241 241 246 246 240 238 242 244 241 262 289 313 326 328 332 332 332 333 334
304 323 313 313 309 308 312 311 310 322 323 326 321 318 319 309 305 302 301 301 298 288 286 272 258 250 243 241 241 234 238 239 242 236 234 234 230 231 242 272 297 317 327 331 331 331 333 332 333
303 306 315 316 318 316 315 320 336 330 329 321 317 313 315 317 314 311 306 303 294 288 282 270 254 246 240 235 226 227 233 235 236 234 225 219 222 228 245 281 306 323 327 332 331 331 332 332 331
312 319 316 320 323 326 321 268 312 326 331 326 322 318 311 311 312 312 309 304 292 288 281 266 251 239 225 224 221 224 226 232 228 225 214 216 215 232 281 299 325 323 324 331 331 330 329 330 329